RH
79 84 94 94 91 87 80 70 58 52 47 40 35 30 28 26 25 24 21 19 19 19 20 20 20 21 21 21 21 22 23 24 24 23 21 21 22 24 25 26 28 29 29 30 29 30 34 37 39 37 35 34 32 30 29 30 33 33 32 31 30 30 31 31 30 29 27 26 24 23 26 30 34 33 27 29 27 25 22 21 23 24 26 30 34
79 85 94 95 91 82 73 65 54 46 41 34 28 25 25 24 23 21 19 19 19 20 20 20 21 21 22 22 22 23 24 23 23 22 21 21 23 25 26 26 27 27 28 30 29 29 32 35 39 40 37 35 34 32 31 28 30 32 32 32 31 30 29 28 27 25 24 23 25 25 26 28 32 31 28 28 24 22 21 20 20 24 28 31 35
74 80 88 92 86 73 63 60 51 40 34 29 25 24 25 23 21 19 19 20 20 20 20 22 22 23 23 23 23 24 24 24 23 22 22 23 24 26 26 27 27 27 28 31 31 31 34 36 38 40 39 37 35 33 32 29 30 31 30 32 31 30 28 25 23 21 19 20 26 28 29 31 30 30 29 26 24 24 21 19 20 24 28 31 35
67 71 75 78 74 66 59 54 44 34 28 25 24 25 24 21 19 19 20 20 20 21 22 23 23 24 23 22 24 24 26 26 26 25 25 26 26 27 27 28 30 29 29 31 31 32 35 34 32 36 40 40 38 35 34 32 31 32 32 32 32 30 24 21 20 18 18 20 25 28 34 36 30 29 28 26 25 25 22 19 20 23 27 30 36
63 66 70 69 64 61 57 48 37 29 25 25 25 23 21 19 19 20 20 20 21 23 24 24 24 23 22 22 23 25 27 29 29 29 29 29 29 29 29 32 34 33 31 30 30 32 34 32 29 34 41 43 41 38 36 33 32 34 34 32 30 28 22 18 16 17 18 17 25 38 46 39 32 32 29 28 26 25 22 19 20 23 26 29 37
64 63 67 68 61 58 52 40 30 26 24 24 23 20 18 19 20 20 20 22 24 25 25 24 23 22 21 21 23 26 29 31 33 32 31 31 31 31 32 34 34 34 31 30 31 34 36 36 36 39 44 46 44 41 37 34 34 36 35 33 28 27 22 17 14 15 15 19 36 53 56 44 35 35 31 29 27 26 23 20 21 22 25 29 36
66 63 63 63 57 53 47 35 26 24 23 23 20 18 18 19 20 20 23 26 27 27 26 25 23 22 20 21 23 26 30 33 34 33 32 31 31 32 34 34 32 32 31 32 33 35 38 41 45 48 50 48 46 44 41 37 36 38 38 36 30 27 23 19 16 12 16 30 50 52 47 40 30 29 30 30 27 27 24 22 22 23 26 30 36
65 66 61 55 51 46 41 31 24 22 21 20 18 16 17 18 19 23 28 30 31 30 29 28 26 23 21 22 24 28 32 34 34 33 33 32 32 33 35 35 33 32 33 35 34 34 36 42 48 53 54 51 49 49 48 42 40 40 40 40 34 30 26 22 17 14 16 23 46 52 42 34 25 26 28 28 27 27 26 23 24 25 28 32 36
60 61 57 50 45 38 33 27 23 22 20 18 15 14 16 17 21 28 34 35 35 35 34 32 29 26 22 22 25 30 33 35 35 34 34 34 34 35 38 39 36 35 37 38 38 36 34 38 44 48 49 48 48 48 50 48 46 46 44 44 41 36 29 26 20 18 16 14 36 49 41 38 28 27 26 25 26 26 27 25 25 27 29 32 35
53 50 49 44 38 31 27 24 22 22 19 15 13 15 17 18 24 33 38 39 40 40 39 37 34 32 27 25 26 28 31 33 35 36 36 37 37 38 43 45 43 39 39 40 41 41 37 34 36 38 40 41 41 42 47 50 50 52 53 52 48 44 35 31 27 22 19 16 35 40 33 39 30 25 26 24 25 25 27 26 26 27 28 30 31
45 41 39 35 29 27 25 23 23 21 16 13 15 19 20 22 28 37 42 44 45 44 44 42 41 39 36 34 33 35 37 39 40 40 39 39 41 44 47 52 50 44 44 47 46 44 41 37 35 35 37 38 40 41 46 52 53 51 56 60 54 50 43 36 31 27 24 19 34 38 29 35 29 23 24 22 23 24 26 26 26 26 27 27 28
35 32 31 29 25 24 25 24 22 17 13 15 20 23 24 26 32 40 46 48 48 46 45 44 43 43 43 43 44 47 50 54 55 54 50 46 46 48 52 57 55 50 51 54 50 45 42 41 41 41 41 42 45 47 49 55 59 53 52 61 57 51 47 43 36 30 29 23 26 29 31 43 35 24 22 21 22 22 24 24 25 25 26 26 26
27 24 24 26 23 22 23 21 17 13 13 19 25 27 29 30 35 43 48 49 47 45 43 41 41 42 44 46 48 51 52 56 61 62 59 54 52 53 55 56 53 53 56 55 49 46 45 44 44 45 47 49 51 53 52 53 59 59 53 55 55 51 47 44 41 35 33 31 25 21 34 44 31 23 25 21 21 22 22 22 23 23 23 24 24
19 19 21 23 20 19 19 17 13 12 16 23 28 30 33 33 37 43 46 47 46 42 39 38 38 39 41 45 48 50 52 53 57 59 56 54 54 54 54 53 53 53 51 47 44 44 44 44 47 51 55 58 60 60 59 58 61 65 62 56 53 52 50 49 47 40 37 40 32 24 31 32 19 18 24 23 21 22 21 20 20 21 21 21 22
15 16 20 22 19 16 16 14 12 15 20 25 29 33 35 35 38 42 41 42 42 39 36 34 34 35 38 43 47 50 53 54 54 54 52 50 50 50 51 50 49 46 43 41 42 43 45 51 55 55 54 54 54 54 55 59 60 62 65 65 64 60 57 57 57 50 42 43 42 36 32 28 20 16 18 23 25 22 19 19 19 20 20 19 20
14 15 18 22 19 15 15 14 15 19 23 26 29 34 36 36 39 39 37 38 37 33 30 28 28 31 36 42 47 50 52 52 50 48 47 47 47 47 45 43 43 45 45 43 44 48 53 53 45 36 31 29 30 31 32 35 37 39 44 54 65 71 68 63 62 59 51 45 45 45 41 37 33 24 17 17 20 20 18 18 19 19 19 18 19
14 16 17 20 18 14 15 16 19 23 24 24 27 35 38 37 38 36 35 33 28 23 20 20 22 27 34 40 44 47 49 47 45 43 43 44 43 41 40 43 47 44 36 32 38 43 42 31 19 14 13 13 14 15 14 14 15 15 18 23 33 51 65 67 64 63 59 52 47 47 47 45 43 38 29 20 16 15 14 16 19 20 20 19 19
16 17 17 19 17 14 16 18 22 24 23 22 28 36 38 36 35 34 30 24 17 13 12 14 20 26 33 37 39 40 42 40 37 36 37 37 35 36 39 40 35 24 15 15 21 21 16 10 8 10 10 9 10 10 9 9 9 7 8 8 10 19 35 53 60 62 63 62 57 53 52 51 48 47 43 37 26 17 14 14 15 17 18 19 19
16 17 18 18 16 16 18 21 22 22 21 21 30 36 36 34 32 28 21 13 10 9 9 13 18 24 28 30 30 30 30 29 27 26 26 25 25 27 26 21 14 8 6 7 7 7 7 8 8 9 9 8 8 9 9 8 7 7 7 6 7 7 11 24 37 50 58 62 63 57 56 56 54 52 49 49 43 30 21 15 14 14 14 16 18
16 16 17 19 18 21 22 22 22 20 20 23 30 34 33 30 24 17 11 8 7 7 8 13 17 19 21 21 21 20 19 19 18 18 18 16 16 16 11 8 6 6 6 5 5 7 7 9 9 9 10 8 7 8 8 8 7 7 7 7 7 7 8 8 15 27 34 47 61 58 58 62 62 59 54 53 53 46 34 23 18 16 15 15 16
16 15 17 19 18 23 24 22 21 20 22 25 29 29 26 19 11 8 7 7 7 6 8 12 15 14 13 13 12 12 12 13 13 15 16 13 11 10 7 5 6 6 6 6 6 6 8 9 9 10 11 9 9 10 9 8 8 8 8 8 8 7 8 6 9 12 17 40 52 46 50 58 63 66 64 60 56 55 48 37 27 21 18 17 17
15 14 15 19 18 23 24 21 21 22 25 26 27 22 14 8 5 6 7 7 6 5 8 11 12 10 9 9 9 9 9 10 11 13 14 12 9 7 6 6 6 6 6 7 7 8 11 11 10 11 11 11 12 11 11 10 9 9 9 8 8 8 8 7 8 7 16 37 34 22 33 43 49 58 66 69 64 61 58 49 40 31 23 20 18
15 13 14 19 19 23 23 21 23 26 27 26 23 15 8 5 5 7 7 7 6 6 7 9 10 9 9 9 9 9 8 8 8 9 10 10 9 7 6 6 7 7 8 8 9 11 12 11 11 10 10 14 15 12 10 10 9 10 10 10 10 9 9 8 9 7 11 22 18 14 23 31 41 50 58 67 71 69 64 56 50 43 32 24 21
14 12 14 19 20 21 21 23 27 29 28 25 19 12 7 7 6 7 7 7 6 7 7 8 9 10 10 11 11 10 8 7 7 8 9 9 8 8 8 7 7 8 8 8 9 10 10 10 9 10 15 19 18 14 11 9 9 10 10 10 10 10 10 9 10 9 8 11 12 13 16 18 29 42 46 52 63 70 68 61 55 51 42 33 28
14 12 13 19 21 21 20 24 29 31 30 24 17 12 9 9 8 7 8 8 8 8 9 9 9 10 10 11 11 10 9 7 7 8 9 9 8 10 10 8 8 9 8 9 8 8 10 9 11 20 25 23 21 17 12 9 9 10 11 11 10 10 10 10 10 10 10 9 9 10 12 9 15 32 39 42 51 59 65 67 62 57 50 43 37
13 13 13 17 21 20 19 23 30 33 31 26 18 13 12 12 10 9 9 9 9 10 10 9 9 9 9 10 9 10 9 7 7 8 9 9 9 10 10 9 9 9 9 9 9 8 9 8 12 23 24 19 20 15 10 9 9 9 10 10 11 11 10 10 10 10 10 10 9 9 10 8 11 21 32 43 49 45 46 54 61 63 58 55 51
13 14 15 17 20 20 19 23 30 33 31 27 20 15 14 14 12 11 10 10 10 11 10 10 9 9 9 9 8 8 7 7 7 8 9 10 10 11 11 11 11 11 10 9 9 8 8 8 8 15 14 12 13 11 10 10 9 9 9 10 10 11 11 11 10 10 10 10 11 10 10 10 11 18 32 45 45 39 37 40 47 53 51 55 58
12 15 17 16 19 20 18 22 29 31 29 26 20 16 15 14 13 12 11 10 10 11 11 11 10 9 9 9 8 7 7 7 8 9 10 10 11 11 11 12 12 11 10 9 9 8 8 8 8 10 10 10 9 9 11 10 9 9 9 9 10 10 11 11 11 10 10 10 11 10 11 11 9 17 32 38 36 35 39 37 38 41 42 43 44
12 16 20 17 17 19 17 20 27 29 26 22 18 15 14 14 13 11 11 10 11 12 13 13 13 11 10 10 9 8 8 9 9 10 10 10 10 11 12 12 13 12 12 12 12 10 8 7 7 9 9 9 9 10 11 9 8 9 9 9 9 10 10 11 11 11 10 10 11 11 11 11 11 20 31 34 31 28 29 30 31 34 41 42 39
11 16 22 19 15 17 17 18 24 26 23 19 15 13 13 14 13 10 10 10 11 14 16 17 16 14 12 11 11 10 10 10 11 10 9 9 10 12 13 14 14 15 16 17 17 15 13 11 9 9 8 8 8 9 10 9 7 7 8 8 9 10 9 10 11 11 11 10 11 11 12 11 13 23 29 27 22 17 17 20 22 28 37 42 42
11 16 23 20 13 15 16 17 22 23 20 16 13 11 12 13 13 11 10 10 12 14 17 19 17 15 13 13 13 12 12 12 11 10 9 10 11 13 13 12 13 13 13 14 15 15 16 16 14 12 9 8 8 7 8 8 8 7 7 7 8 9 9 9 10 10 11 11 11 11 11 11 12 17 18 15 14 11 10 11 14 24 34 36 37
11 16 23 20 13 13 15 16 19 21 18 13 11 10 10 11 13 12 12 11 12 14 16 18 18 15 14 14 14 13 13 12 10 9 9 10 11 12 12 13 14 14 15 13 12 12 13 15 15 13 11 10 9 8 7 7 7 7 7 7 7 8 8 9 10 11 11 10 11 11 11 11 12 12 11 11 12 11 11 11 11 18 27 29 30
11 16 21 18 13 13 14 15 17 18 16 11 10 10 9 9 10 11 11 12 12 13 12 15 17 16 15 15 14 13 12 10 9 9 9 9 10 13 15 18 19 19 19 18 16 15 14 14 13 12 11 11 10 10 9 8 7 6 7 7 7 7 8 8 9 10 11 11 10 11 11 11 11 11 12 11 11 11 11 12 13 15 21 26 31
11 16 19 17 15 14 13 15 16 16 15 10 9 9 9 9 9 9 10 10 11 11 10 12 15 16 15 15 13 11 10 9 9 9 9 10 13 17 21 23 23 21 20 19 19 19 18 16 15 13 12 11 11 10 10 10 9 7 7 6 7 7 7 8 9 10 10 10 10 10 10 11 11 11 12 12 11 11 10 14 21 20 19 22 31
12 15 17 16 17 16 13 15 15 14 13 10 8 8 8 9 9 9 9 9 9 9 9 11 14 14 13 13 11 10 9 9 8 9 11 13 17 22 26 27 24 22 21 21 21 21 21 20 19 19 18 17 15 14 13 12 12 11 10 8 7 6 7 7 7 9 9 10 11 10 10 10 10 10 12 12 12 12 11 17 25 24 21 20 24
12 14 17 16 17 17 14 14 14 13 11 9 8 7 7 7 8 9 9 9 8 8 9 11 12 11 11 11 10 9 8 8 9 11 12 16 20 25 28 28 25 23 23 24 25 23 21 21 22 23 24 24 24 22 20 19 18 16 14 12 9 7 6 7 7 8 8 9 10 10 11 10 10 10 10 12 13 13 12 14 18 18 19 20 18
11 14 17 15 15 15 14 14 13 12 9 8 7 6 6 6 6 7 8 8 8 9 9 11 11 9 10 10 9 8 8 9 10 11 14 18 23 27 29 28 25 24 26 28 29 30 30 30 31 32 33 33 33 32 30 28 25 21 18 15 13 10 8 7 6 7 7 8 9 9 10 10 11 11 11 11 12 12 13 13 14 13 14 16 15
10 14 18 13 10 11 12 12 11 11 9 7 6 5 5 5 5 6 6 8 9 10 10 11 11 9 10 11 10 9 9 11 11 13 15 18 24 28 28 27 24 24 27 31 35 38 40 39 41 42 43 44 44 42 40 39 36 32 26 18 14 12 10 8 7 6 6 6 7 8 8 9 10 11 11 12 12 13 13 13 14 15 14 13 14
10 15 19 13 8 8 9 9 9 10 8 7 7 5 5 5 5 6 5 6 8 10 11 11 11 10 12 12 11 11 11 12 12 14 16 19 24 27 27 26 22 24 29 34 37 39 40 42 45 47 48 48 48 47 46 44 43 42 39 31 23 16 12 10 8 7 7 6 6 6 7 8 9 10 11 12 12 13 14 14 16 17 15 13 13
11 17 20 17 11 7 7 7 7 8 7 7 6 5 5 5 5 5 5 5 7 10 11 12 11 11 13 13 12 12 12 12 11 13 17 20 24 25 27 23 19 26 33 35 36 39 42 43 42 40 38 38 39 42 44 45 45 47 47 44 37 28 21 17 12 10 9 8 8 7 7 7 7 9 10 11 12 12 13 13 14 15 14 13 13
13 19 21 19 15 8 6 6 5 6 5 5 5 5 5 5 5 4 4 4 6 9 11 12 12 12 14 13 13 12 11 10 10 13 17 19 22 24 25 20 18 29 34 33 38 41 40 36 29 24 22 21 23 27 32 38 43 47 49 47 44 42 39 36 31 27 22 17 13 10 9 8 7 8 8 9 10 11 12 12 12 12 13 13 13
13 19 21 19 16 9 5 5 5 5 5 4 4 5 5 5 4 4 4 4 5 7 10 11 12 12 13 13 13 11 9 9 10 12 13 15 18 21 22 17 20 32 33 34 41 42 36 26 19 15 13 13 14 15 18 22 28 33 37 37 35 36 37 38 40 42 42 38 32 26 21 17 13 11 10 9 9 9 10 11 11 11 11 11 12
12 17 20 18 15 11 6 6 5 4 5 5 5 5 5 4 4 3 4 4 5 6 9 11 11 11 12 12 12 9 8 9 10 10 11 13 14 19 20 16 23 32 31 35 44 42 36 29 22 19 16 14 15 15 14 15 16 18 20 20 19 20 20 21 25 30 35 38 39 40 39 36 30 25 22 19 15 12 10 9 9 10 10 11 11
11 14 16 16 15 13 10 9 8 6 5 4 5 5 4 4 3 3 3 4 5 6 8 9 9 10 11 12 11 7 8 10 9 10 10 11 12 16 18 16 25 32 30 37 45 42 40 38 36 35 30 22 18 17 16 16 15 14 14 14 14 14 15 15 15 15 16 18 20 25 30 33 37 37 35 32 27 22 18 14 12 10 10 10 11
11 12 14 15 15 15 13 12 10 7 6 5 4 4 4 4 4 4 4 4 5 5 6 7 8 10 12 13 11 7 8 9 9 9 10 11 11 13 16 15 24 31 30 37 45 42 39 41 43 44 41 32 22 18 16 15 15 14 13 14 14 15 15 15 16 15 15 13 12 13 14 15 22 28 30 30 30 28 25 22 20 18 18 18 18
10 10 12 13 14 15 14 12 9 6 5 5 4 4 4 4 4 4 4 4 4 5 5 6 8 10 12 14 11 7 7 9 9 9 10 12 11 11 13 14 20 28 30 35 43 44 39 38 40 42 43 35 25 20 17 16 15 14 14 14 14 15 15 15 16 16 17 17 16 15 15 14 14 17 18 19 20 21 21 22 21 22 23 24 26
8 9 10 11 11 11 11 10 7 4 4 4 4 4 4 4 4 4 4 4 4 4 5 6 7 9 11 12 11 7 7 8 8 9 10 13 12 11 11 12 16 24 29 33 40 44 42 37 35 36 37 32 25 21 18 16 16 15 14 14 14 14 14 14 14 15 16 17 18 17 17 17 16 16 17 17 18 18 18 17 17 17 18 19 21
6 7 8 8 8 8 8 7 4 3 4 4 4 4 4 4 4 4 4 4 4 4 5 6 7 9 11 12 10 7 6 7 8 9 11 13 14 13 11 10 12 19 27 32 36 42 44 38 32 32 31 27 23 20 18 17 17 14 14 14 15 15 14 14 14 14 14 15 16 17 17 18 18 17 18 20 22 22 21 20 20 18 17 17 17
4 5 6 6 6 5 5 4 3 4 4 4 4 4 4 4 4 4 4 4 4 5 5 5 6 8 10 12 10 7 6 7 8 9 10 13 15 15 13 10 10 13 21 30 35 40 44 39 32 30 28 24 21 20 19 19 15 13 16 18 18 17 16 16 16 16 16 15 15 15 15 16 17 18 19 22 25 26 25 24 24 23 21 18 16
4 4 4 4 4 3 3 3 4 4 4 4 4 4 4 4 4 4 4 4 4 4 5 5 6 7 9 11 9 7 7 8 8 9 10 11 13 16 16 13 10 11 16 25 32 38 43 41 34 29 26 23 21 21 21 18 13 15 21 22 20 19 19 19 19 18 18 17 16 15 14 15 15 17 18 20 22 24 25 26 26 26 23 20 17
4 3 3 3 3 3 3 4 4 4 4 4 4 4 4 4 4 4 4 4 4 4 5 5 6 6 7 9 9 8 8 8 8 9 10 11 11 14 19 18 14 11 12 19 27 35 42 43 37 30 26 22 21 23 21 15 13 19 25 25 21 20 21 21 20 19 19 18 18 16 15 15 15 16 17 17 19 22 24 26 27 27 23 19 16
Wind_Speed
14 16 17 18 17 15 15 16 16 17 16 15 15 15 15 15 14 13 13 12 12 12 12 12 12 12 12 12 11 11 11 11 11 11 11 11 11 12 14 13 13 12 10 9 9 9 9 9 9 8 8 8 8 9 8 7 6 6 5 5 5 5 5 4 4 4 2 2 2 2 2 2 2 3 4 5 6 6 6 8 10 12 13 14 14
13 15 17 16 16 13 14 15 15 16 15 15 15 15 15 15 14 13 12 12 12 12 12 12 12 12 12 11 11 11 11 11 11 11 11 11 12 13 14 13 13 12 11 9 8 8 9 9 8 8 7 7 7 8 7 6 6 5 4 4 4 4 4 4 4 4 4 3 3 2 3 3 4 4 6 7 7 6 7 8 10 12 14 14 14
14 15 15 15 14 13 12 13 14 15 15 15 14 15 15 14 13 12 12 12 11 11 12 12 12 11 11 11 11 11 11 11 12 12 12 12 12 14 14 13 12 11 10 9 8 8 9 8 8 8 7 7 6 6 6 6 6 5 4 4 4 4 4 4 4 4 4 5 4 4 4 4 5 6 8 8 7 7 7 8 10 13 14 14 13
13 14 14 12 12 11 10 11 12 14 15 14 14 14 14 13 12 12 12 11 11 11 11 11 11 11 11 11 11 11 11 11 12 13 13 13 13 13 13 12 11 10 10 9 8 9 9 8 9 8 8 7 6 6 5 5 5 5 5 4 4 4 4 4 5 5 4 5 5 5 5 6 7 8 9 9 8 8 8 8 10 13 14 13 13
12 13 12 11 10 9 9 10 13 14 15 14 14 13 13 13 12 12 11 11 10 10 10 10 10 10 11 11 11 11 11 12 13 13 13 13 13 13 13 12 10 10 9 9 9 9 9 9 9 8 8 7 6 5 5 5 5 5 5 5 5 4 5 5 5 5 4 4 5 7 8 7 8 8 9 9 9 9 9 9 11 13 13 12 12
11 11 11 11 10 10 9 11 13 14 15 14 12 12 13 12 12 12 10 10 10 10 10 10 11 11 11 11 11 12 12 12 13 13 13 13 13 13 12 11 11 10 9 10 9 9 9 9 9 8 8 7 6 5 5 4 5 5 5 5 5 5 5 5 5 5 4 4 5 7 10 9 8 9 9 9 10 10 9 10 11 12 12 11 11
9 10 11 11 10 10 11 12 14 14 14 12 11 12 12 12 12 11 10 10 10 10 10 10 11 11 12 12 12 12 12 12 13 13 13 13 12 12 12 11 11 10 10 10 10 9 9 8 8 8 7 7 6 5 5 4 5 5 6 6 6 6 5 5 5 4 3 3 5 7 9 10 9 9 9 10 10 10 10 10 11 12 12 11 11
8 10 10 10 11 11 11 13 14 13 12 11 11 12 12 11 11 10 10 10 10 10 11 11 11 12 13 13 14 14 13 13 13 13 12 12 12 12 11 11 11 10 10 10 10 9 9 8 8 7 7 6 6 6 5 4 4 4 5 5 5 5 5 5 5 4 2 2 5 9 9 10 10 9 9 10 10 10 10 10 11 11 11 10 10
8 9 10 10 11 11 11 12 12 12 10 10 11 12 12 11 11 10 10 11 11 11 11 11 12 13 13 14 14 14 14 13 13 13 12 12 12 12 11 11 10 10 9 10 9 9 8 7 7 7 6 5 5 6 4 4 4 4 3 3 4 4 4 5 5 5 4 2 5 10 9 9 10 9 10 10 10 10 10 10 11 11 11 10 10
9 9 10 11 11 11 11 11 11 10 10 11 12 12 12 12 11 11 11 11 11 12 12 12 13 14 14 15 15 14 14 13 13 12 11 11 11 11 11 10 9 9 9 9 9 8 8 7 6 5 5 4 5 4 4 3 4 4 2 2 3 3 3 4 5 4 4 2 5 9 7 9 10 10 10 10 10 11 10 10 11 11 11 11 11
10 10 10 11 11 11 11 10 10 10 10 11 12 12 12 12 11 11 11 11 12 12 13 13 14 14 15 16 15 14 14 13 12 10 10 10 10 10 10 9 9 9 9 8 8 7 7 7 6 5 4 4 4 4 3 3 4 4 3 3 3 4 4 3 4 4 4 2 4 8 7 8 9 10 11 10 10 11 11 10 11 11 11 11 11
10 9 10 10 10 11 11 11 11 10 10 11 12 12 12 12 11 11 11 12 12 13 13 14 14 15 16 16 15 15 14 13 11 10 10 10 10 10 9 9 8 9 8 8 7 7 7 6 6 5 4 4 4 3 3 3 4 4 4 3 4 5 5 4 4 4 4 3 4 5 6 9 9 9 11 10 10 10 10 11 10 10 11 10 10
10 9 9 9 10 10 10 10 10 10 11 11 11 11 12 12 12 12 12 12 13 14 14 14 15 15 16 16 15 15 14 13 12 11 10 11 11 10 10 9 9 9 8 8 7 7 7 6 6 5 5 4 4 4 3 3 3 4 4 4 4 5 5 5 4 4 4 3 4 4 5 9 9 9 10 10 10 11 11 11 11 11 10 10 10
9 8 8 9 10 10 10 10 10 10 10 10 11 11 12 12 12 12 12 13 13 14 14 14 14 15 15 15 15 15 14 13 12 12 12 12 12 11 11 10 9 9 8 8 7 7 7 7 7 7 7 7 7 7 6 5 4 4 4 4 4 5 5 5 5 5 5 3 4 5 4 7 6 7 8 8 9 10 11 11 11 11 11 10 10
9 8 8 9 10 10 10 10 10 10 10 10 11 11 12 12 13 12 12 13 14 14 13 13 14 14 14 14 14 15 14 13 13 13 13 13 13 12 11 10 9 9 9 9 8 8 8 9 9 10 10 10 10 10 10 9 8 8 7 5 4 3 3 4 6 7 7 6 5 5 5 6 6 5 5 7 8 9 11 11 11 11 11 11 10
8 8 8 9 9 10 11 11 10 10 9 10 11 12 13 13 13 13 13 13 14 13 13 13 13 13 14 14 14 15 15 14 13 13 14 13 13 12 11 10 10 11 11 11 11 11 11 12 12 12 12 12 12 13 13 12 11 11 10 9 7 4 2 3 4 6 8 7 6 5 4 6 6 5 4 6 7 8 10 10 10 10 10 10 10
8 8 8 9 9 10 11 11 10 9 9 10 12 13 13 13 14 13 13 13 13 13 13 13 13 13 13 14 14 15 15 14 14 14 14 13 13 12 12 12 13 13 14 14 14 14 14 14 14 14 14 14 14 14 14 14 13 13 12 11 10 8 6 3 3 4 6 7 7 7 5 4 5 5 4 4 5 7 8 9 10 10 10 10 10
8 8 8 9 9 10 11 11 10 9 9 11 13 14 14 14 14 14 14 14 13 13 14 14 14 14 14 14 14 15 15 15 14 15 15 14 14 14 14 14 15 15 15 15 15 15 16 15 15 14 14 13 13 13 13 13 13 13 13 12 12 10 9 7 5 3 4 6 7 7 6 5 5 4 3 3 4 5 6 8 9 10 10 10 10
7 8 8 9 9 10 11 10 10 10 10 12 14 15 14 15 15 14 14 14 14 14 14 14 15 15 15 15 15 16 16 15 16 16 17 16 16 16 15 15 15 15 15 15 15 15 15 15 14 13 12 11 12 12 12 12 11 12 12 12 12 11 11 9 7 5 3 3 5 5 5 5 5 6 5 4 3 4 5 6 7 8 9 10 10
6 7 9 9 9 10 10 10 10 10 10 12 15 15 15 16 15 15 14 14 14 14 15 15 16 16 16 16 16 17 16 16 17 17 17 17 17 16 16 16 15 15 15 14 14 14 14 13 12 11 10 10 10 11 11 10 10 11 11 10 10 11 11 10 9 8 5 3 2 3 3 4 4 6 8 7 6 5 5 6 6 7 7 8 9
5 7 9 10 10 10 10 10 10 11 11 13 15 16 16 16 15 15 15 15 15 15 15 16 17 17 17 17 17 17 17 17 17 17 17 16 16 16 16 16 15 14 14 13 12 12 11 11 10 9 9 9 10 10 10 10 10 10 10 10 9 10 10 9 9 9 8 6 4 2 2 1 1 4 6 8 9 8 7 6 6 6 7 7 8
5 7 10 11 10 10 10 10 11 11 12 14 15 16 16 16 16 16 16 15 15 15 15 16 17 17 18 18 18 17 17 17 16 16 16 16 15 14 14 14 13 13 12 11 11 10 9 9 9 8 8 9 9 9 10 10 10 10 10 10 9 9 9 8 8 8 9 9 7 6 5 5 3 1 3 6 8 10 9 8 8 8 7 7 7
6 7 10 11 11 10 10 11 11 12 13 14 16 16 16 15 16 16 16 16 15 15 15 16 16 17 17 18 17 17 17 16 16 15 15 14 14 13 13 13 12 11 11 10 9 8 8 8 8 8 8 9 8 9 10 10 10 9 9 9 9 8 8 8 8 8 9 9 9 9 8 7 6 4 1 2 5 8 9 9 9 9 8 8 8
7 8 10 12 12 11 11 11 11 12 13 15 16 16 16 15 16 16 16 16 15 15 15 15 15 16 16 17 17 16 16 15 15 15 14 13 13 12 12 11 11 10 9 9 8 7 8 8 8 8 9 9 8 9 9 9 9 8 8 8 8 7 8 8 8 8 9 9 9 10 9 9 7 7 5 2 1 5 7 8 9 9 9 8 8
8 9 10 11 12 11 11 11 11 12 13 14 15 16 16 16 16 16 15 16 15 15 15 15 15 15 15 15 15 15 15 14 14 14 13 12 12 11 11 11 10 9 9 8 8 7 8 8 8 8 9 8 8 8 8 8 9 8 7 7 8 7 8 9 9 8 8 8 9 10 10 9 8 7 5 3 1 1 4 6 7 8 8 9 9
9 10 10 11 11 12 12 12 12 12 13 14 15 16 16 16 16 15 15 15 15 15 15 14 14 14 14 14 14 14 13 13 13 13 12 12 12 11 10 10 9 9 9 8 8 7 8 8 8 7 7 7 7 7 8 8 8 7 7 7 7 8 8 9 9 8 8 8 9 10 10 9 8 6 5 3 2 2 1 3 5 6 7 8 9
9 10 10 10 10 12 12 12 12 13 14 14 14 15 16 17 16 16 16 15 15 15 14 14 13 13 13 13 13 13 12 12 12 12 12 11 11 10 10 9 8 8 8 8 7 7 7 8 8 7 7 7 7 7 7 7 7 7 7 7 7 8 8 8 8 8 8 9 9 10 10 9 6 7 7 4 3 2 1 1 3 3 4 6 7
10 11 11 11 10 11 13 13 13 13 14 14 15 16 17 17 17 17 16 16 15 14 14 13 12 12 12 12 12 12 12 12 12 11 11 10 10 9 9 8 8 7 7 7 7 7 7 7 7 6 6 6 6 6 6 6 6 7 7 7 7 7 7 7 7 7 8 9 9 9 10 9 6 8 8 6 5 4 2 1 2 2 1 3 5
12 12 11 11 10 11 13 14 14 13 13 14 15 16 17 18 18 17 17 16 15 14 13 13 12 11 11 11 11 11 11 11 11 10 10 10 9 9 8 7 7 7 7 6 6 6 6 7 6 6 5 6 6 6 6 5 5 5 6 7 7 7 7 7 7 7 8 9 9 9 9 8 7 9 9 7 7 6 4 2 2 3 2 2 3
13 13 11 10 11 12 14 15 14 14 14 14 15 17 18 18 17 17 17 16 15 14 13 12 11 11 11 11 11 10 10 10 10 10 9 9 8 8 7 7 6 6 5 5 5 5 5 5 5 4 4 5 5 5 5 4 4 4 5 5 7 7 7 7 7 7 8 8 8 8 8 8 8 9 8 7 8 8 7 6 5 4 3 1 2
14 13 12 10 11 13 15 15 15 15 15 15 16 17 18 18 17 17 16 15 14 13 12 11 11 11 11 11 11 10 10 10 10 9 9 8 8 7 7 6 6 5 5 4 4 4 4 4 4 3 3 3 4 4 4 4 3 4 5 5 5 7 7 8 8 8 7 7 7 7 7 9 9 8 7 7 7 7 8 8 7 4 2 2 2
15 14 13 11 11 14 16 16 16 16 16 16 16 17 17 17 16 16 15 14 14 13 12 11 11 11 11 11 11 10 10 10 10 9 9 8 7 6 6 6 5 5 5 5 4 4 4 4 4 4 4 4 4 4 5 5 4 4 5 4 4 5 7 8 8 8 7 7 7 6 7 9 8 7 7 6 6 7 8 8 7 5 4 3 3
16 15 14 12 12 14 16 16 16 16 16 17 17 17 17 17 16 15 14 14 13 12 12 12 12 12 11 11 11 10 10 10 9 9 8 7 6 5 5 5 5 5 5 5 4 4 4 3 3 4 4 4 4 4 5 5 5 5 5 4 4 4 5 7 7 7 7 7 7 7 7 8 8 8 8 7 7 7 7 8 7 7 6 6 5
16 16 14 13 13 15 16 16 16 17 17 17 17 17 17 17 16 15 14 13 13 13 13 12 12 12 12 12 11 11 10 9 9 8 7 5 5 5 5 5 5 5 5 4 4 4 3 3 2 2 3 3 4 4 5 6 6 6 5 5 4 4 4 5 5 6 6 6 7 7 7 8 8 8 8 8 7 7 8 8 7 6 6 5 5
16 17 16 15 15 15 17 17 17 17 18 17 17 18 17 17 16 15 14 13 13 13 13 13 13 13 13 13 12 11 11 10 9 7 5 4 4 4 4 5 5 5 4 4 3 3 3 2 2 2 3 3 3 4 5 6 6 6 6 5 5 5 4 4 4 5 5 6 7 7 7 8 8 8 8 7 7 8 9 8 6 5 5 5 5
18 18 17 16 15 16 17 18 17 18 18 18 17 17 17 16 15 14 14 13 13 14 14 14 14 14 13 13 12 12 11 10 8 6 5 4 4 4 4 5 5 4 4 3 3 3 3 4 4 4 4 4 4 4 5 7 7 7 7 6 5 4 4 5 4 4 5 5 6 7 7 7 8 8 8 8 8 8 9 9 7 6 7 7 6
19 19 17 16 16 17 18 18 18 18 18 17 17 17 16 15 15 14 14 14 14 14 15 15 14 14 13 13 12 11 10 8 6 5 4 4 4 4 4 4 4 4 4 3 4 5 6 6 6 6 6 6 6 6 6 6 7 7 7 7 6 5 4 5 5 5 5 5 5 6 6 7 7 7 8 8 8 8 9 8 8 8 8 8 8
19 19 18 17 17 17 18 18 18 18 17 17 17 17 16 15 15 14 14 14 15 15 15 15 14 14 13 12 11 10 8 6 5 4 4 4 4 4 4 4 4 4 4 4 5 6 7 8 8 8 7 7 7 6 6 6 6 7 7 7 7 6 5 5 5 6 6 5 5 5 5 6 6 6 7 7 8 8 8 8 7 7 8 8 8
19 19 18 17 16 16 17 17 17 17 17 17 17 16 16 15 15 15 15 15 16 15 15 15 14 14 13 12 10 9 7 5 4 4 4 4 3 4 4 4 4 5 6 6 7 7 8 9 9 9 9 9 8 7 6 5 5 6 6 6 7 7 7 6 6 6 6 6 6 5 5 5 5 5 6 6 7 7 8 8 7 7 7 7 7
19 19 18 16 15 15 15 15 16 16 16 16 16 16 16 16 15 15 15 16 16 15 15 14 14 13 13 11 10 9 7 4 3 3 3 3 3 4 4 4 4 5 6 7 8 8 9 9 10 11 12 12 12 10 8 6 5 6 7 7 8 8 8 7 7 6 6 6 6 6 5 5 5 5 5 6 6 7 8 8 9 9 8 8 8
19 19 18 16 15 14 15 15 15 16 16 16 17 17 17 17 16 15 15 15 15 15 14 14 13 13 13 12 10 8 6 4 3 3 3 3 3 3 3 3 4 5 7 8 9 9 9 10 11 13 14 14 15 15 14 12 10 9 8 8 8 8 8 8 8 7 7 6 6 6 6 5 5 5 5 6 6 7 8 8 9 9 9 9 9
19 19 19 17 16 16 16 16 15 16 16 17 18 18 17 16 15 14 14 14 14 14 13 13 13 13 13 12 10 8 6 4 3 3 3 3 3 3 3 3 3 5 6 8 9 9 9 11 12 13 14 15 15 16 16 16 14 13 11 10 10 10 10 10 9 8 8 7 7 6 6 6 5 6 6 6 7 7 7 8 8 9 9 10 11
19 20 20 18 17 17 16 16 16 16 17 17 17 16 15 14 13 13 13 13 13 13 13 14 14 14 13 12 10 8 6 3 2 3 3 3 3 3 2 2 3 5 6 7 8 8 8 10 11 12 13 13 14 14 15 15 15 15 14 13 13 12 12 11 10 9 8 8 7 6 6 6 6 6 6 6 7 7 7 8 8 9 10 11 11
21 20 20 19 18 18 17 17 17 17 17 17 17 16 14 13 12 12 13 13 13 14 15 15 15 14 13 11 9 8 6 4 2 2 3 3 3 3 1 1 2 4 5 6 6 6 6 7 8 9 11 11 12 13 14 14 15 15 15 14 14 13 12 12 11 11 10 9 9 8 7 7 6 6 7 7 7 7 7 7 8 9 10 11 12
21 21 21 20 19 19 19 19 18 18 17 17 16 15 14 13 13 12 12 13 15 16 17 16 15 14 13 11 10 9 7 5 2 0 2 3 3 2 1 0 1 2 4 4 4 5 5 6 6 7 8 9 10 11 12 13 14 14 14 14 13 13 13 12 12 12 12 11 11 10 9 9 8 7 7 7 8 8 8 8 8 8 10 11 12
22 22 22 22 21 21 21 20 19 18 18 17 16 15 14 14 14 14 15 16 17 17 16 15 15 14 12 11 10 10 8 6 3 1 1 3 3 2 1 1 1 1 2 3 2 4 5 6 6 7 7 8 9 10 11 13 14 14 14 13 13 13 13 13 13 13 12 12 12 11 11 11 10 9 8 8 8 8 8 8 8 9 10 10 11
22 22 22 22 22 22 22 21 20 19 18 17 16 15 15 15 15 16 16 16 15 14 14 15 14 14 12 11 11 10 8 6 4 2 1 2 3 3 2 2 2 1 1 2 2 3 5 6 6 7 7 7 8 9 10 12 13 13 13 12 12 12 12 12 12 12 12 12 12 11 11 11 10 10 10 10 10 9 9 9 10 10 11 11 12
22 22 22 22 22 23 23 22 22 21 19 19 17 16 15 15 16 16 15 15 14 14 15 15 14 14 13 13 12 10 9 7 5 4 1 1 2 3 3 2 2 2 1 1 2 4 5 5 5 5 6 6 6 8 9 10 12 12 12 12 12 11 11 11 11 12 12 12 11 11 11 10 10 9 9 10 10 11 11 11 11 12 13 14 14
22 22 22 22 22 23 24 24 23 22 21 20 19 18 17 16 16 15 15 15 15 15 15 15 15 15 14 14 12 11 10 8 6 5 3 1 2 3 4 3 3 3 2 2 3 4 5 5 4 4 4 4 5 6 8 10 11 12 12 12 12 12 11 11 11 11 11 11 11 10 10 10 9 9 9 8 9 10 11 12 12 13 14 15 15
21 22 22 22 22 23 23 23 23 23 22 21 21 20 19 18 16 16 16 15 15 16 16 16 16 16 15 14 12 11 10 9 7 6 5 3 2 3 4 5 4 4 4 3 4 5 5 5 4 3 3 3 4 6 9 10 11 11 11 12 12 12 11 11 11 11 11 10 10 10 9 10 9 9 9 9 9 10 11 12 13 14 14 14 15
21 22 22 21 21 21 22 22 22 22 22 21 21 20 20 19 18 17 17 16 15 16 16 17 17 17 16 14 13 12 12 10 9 8 6 5 3 3 4 5 5 5 5 5 5 6 6 6 4 3 3 4 4 6 9 11 11 11 11 12 11 10 10 10 10 11 11 11 10 9 9 9 9 10 10 10 10 11 12 12 12 12 12 13 13
Wind_Direction
96 103 114 121 114 103 101 102 106 109 111 112 111 110 111 115 121 126 124 116 111 108 107 107 107 106 105 105 105 104 101 100 100 98 98 98 98 94 91 93 95 96 97 98 98 96 94 95 96 101 101 100 96 91 91 96 104 112 118 125 128 129 129 132 131 128 133 138 145 145 146 142 123 127 130 125 121 121 126 137 145 149 153 153 151
100 106 117 119 111 102 104 109 109 109 110 110 111 113 115 120 122 122 116 111 109 107 108 107 106 106 107 107 105 103 101 101 99 96 95 94 92 90 90 93 95 96 97 99 101 99 95 92 92 93 96 96 95 94 95 100 109 116 124 131 130 130 127 130 131 129 131 129 123 121 129 119 105 120 124 114 111 113 118 131 140 144 148 148 145
104 110 118 116 108 104 111 113 106 106 109 110 113 116 119 120 118 115 111 109 108 108 108 108 109 110 111 109 107 105 103 101 99 97 95 92 88 88 89 91 93 96 100 103 102 99 94 92 91 90 91 92 96 101 103 105 111 117 129 138 137 132 127 132 127 122 123 123 118 110 105 96 98 109 111 107 106 107 112 126 136 142 145 144 143
106 113 117 114 108 110 115 108 104 107 110 113 116 118 118 116 114 111 108 108 109 111 111 112 114 114 113 111 109 107 105 102 99 97 95 92 89 89 91 91 93 96 100 103 101 98 94 92 90 90 90 91 97 103 106 107 107 113 119 128 135 133 130 127 119 117 117 119 120 114 104 96 100 104 105 105 103 103 109 123 134 140 143 142 142
107 113 118 119 114 118 119 109 108 111 113 117 119 117 114 112 111 108 108 111 113 114 115 116 115 113 112 111 110 107 104 101 99 97 95 93 90 91 91 92 92 94 97 96 95 93 91 87 85 86 86 88 95 104 110 109 108 111 113 116 121 126 129 120 115 116 118 130 131 122 114 105 104 108 109 107 104 103 109 121 132 138 141 142 142
112 116 121 125 120 123 121 113 111 112 115 117 117 113 110 110 108 106 110 115 116 117 116 115 112 111 110 109 107 105 103 100 99 97 96 94 93 92 91 90 88 88 87 86 87 87 87 84 83 84 84 86 92 102 111 115 117 116 118 119 118 122 124 118 114 118 137 152 130 119 116 108 102 104 109 111 107 105 111 122 131 138 141 141 143
116 123 125 126 122 121 116 111 111 112 114 115 115 110 108 107 106 109 115 117 118 116 113 111 109 108 107 105 104 102 101 100 100 98 97 96 95 92 89 86 83 82 81 82 83 85 87 85 85 86 88 90 93 101 110 120 127 129 125 123 123 122 121 121 117 123 152 146 113 105 104 102 98 100 108 111 111 112 116 124 131 137 140 142 145
113 124 123 121 116 115 112 110 110 111 114 117 114 108 107 107 109 115 118 119 116 112 109 108 107 106 105 103 102 102 102 102 101 100 99 97 95 92 88 84 80 80 79 80 81 84 87 87 88 90 92 92 94 97 106 120 127 127 122 123 126 123 121 122 120 125 131 127 111 101 98 104 104 105 111 112 115 119 121 128 134 138 141 144 149
106 117 117 113 111 111 109 109 109 112 118 119 112 108 109 110 115 119 119 117 112 109 107 106 105 103 103 103 104 104 105 103 101 100 99 97 94 91 87 84 81 80 78 78 79 82 87 90 92 92 94 92 90 89 97 106 105 103 110 126 129 128 124 122 122 121 121 139 103 96 104 114 114 115 117 119 123 124 128 136 139 141 146 150 155
106 111 113 110 109 109 108 109 113 120 126 119 112 111 112 114 119 119 116 113 109 106 104 103 101 100 101 102 103 104 103 101 99 100 100 97 93 89 86 84 82 78 75 75 77 81 87 93 96 96 96 90 87 87 91 94 91 92 111 151 150 142 134 123 121 116 116 131 86 94 115 118 120 126 124 128 132 131 135 141 143 147 154 158 161
106 108 109 112 113 113 116 120 126 131 126 117 114 114 115 118 119 116 112 110 106 103 102 99 96 96 97 97 97 97 96 95 98 101 102 99 94 89 86 84 81 78 74 72 75 81 87 93 96 98 97 92 88 84 84 85 88 87 96 134 157 155 153 135 117 113 107 103 75 91 117 124 131 136 132 136 138 137 141 145 148 152 159 164 166
105 106 108 115 116 118 125 132 135 131 122 117 116 116 117 119 118 113 110 108 105 101 98 95 93 93 91 91 92 92 91 92 97 101 101 100 97 94 90 86 85 83 78 75 76 80 85 88 90 90 88 85 80 70 59 64 76 77 81 108 142 154 162 155 123 116 105 89 69 76 105 122 138 144 140 147 147 145 147 150 154 157 162 167 170
107 106 111 117 116 120 129 134 131 124 120 118 117 118 119 120 116 112 109 107 103 99 95 92 91 90 88 89 90 91 92 94 96 97 98 99 100 99 96 94 92 88 83 81 79 77 79 79 78 74 69 66 64 59 51 53 67 74 78 96 127 149 166 169 144 125 116 101 81 75 93 108 131 149 148 155 157 156 155 156 159 162 165 168 174
107 108 114 117 116 120 126 127 124 122 122 120 119 120 121 120 117 113 109 105 102 97 94 91 90 88 88 89 90 91 94 97 98 99 99 99 100 102 103 102 98 90 86 86 83 81 80 78 74 70 67 65 64 65 65 65 66 69 75 89 118 143 158 167 164 148 138 135 105 92 84 90 114 144 153 163 167 164 160 163 165 167 169 171 177
102 109 115 117 118 120 123 123 124 127 126 123 122 122 122 121 118 114 109 105 101 97 94 92 90 90 91 92 92 94 96 98 101 103 102 102 103 103 104 100 95 90 89 89 88 87 83 81 80 77 74 72 72 72 73 71 69 68 70 77 89 123 147 155 168 170 160 157 144 118 95 89 96 122 153 171 179 178 168 169 171 172 175 176 181
101 108 115 119 122 123 124 126 130 133 130 126 124 124 123 122 120 115 110 106 101 98 96 94 94 95 96 97 98 98 99 101 104 106 106 105 105 104 101 95 92 91 92 92 91 91 91 91 88 84 80 77 75 74 72 70 68 66 66 68 69 77 107 138 156 174 177 174 173 166 138 109 103 112 146 173 186 191 180 176 178 181 184 184 189
103 108 115 122 126 126 129 132 137 138 135 129 125 125 125 124 120 116 111 106 103 101 99 98 100 102 103 103 104 104 105 106 107 107 107 106 105 104 101 98 97 97 97 96 95 95 96 94 88 83 79 75 73 71 69 67 64 63 61 63 64 67 71 89 127 162 182 189 191 194 191 161 135 127 138 160 181 194 190 187 189 192 193 194 199
106 112 118 123 128 130 134 138 142 142 138 130 125 126 127 125 120 117 113 108 106 104 103 104 107 109 108 108 109 109 110 111 111 109 108 107 106 104 101 100 100 100 99 97 96 95 92 87 81 77 73 71 68 67 66 65 63 61 60 59 60 62 64 70 85 119 171 195 202 201 202 209 201 179 164 154 170 189 192 196 199 201 201 201 206
106 116 122 126 132 135 138 142 144 143 140 131 127 128 128 124 121 118 114 112 110 108 108 110 112 114 113 113 114 114 115 115 113 111 110 109 107 104 102 101 101 101 98 97 95 91 87 82 79 75 71 69 65 63 62 61 61 61 59 57 59 60 62 65 67 75 101 171 198 192 197 219 221 215 216 209 196 186 190 198 201 206 208 208 209
107 119 127 130 137 140 141 143 144 142 138 131 128 129 127 124 121 119 118 117 115 112 113 114 116 116 116 117 117 117 116 115 114 112 111 109 108 107 107 106 105 103 100 96 93 89 87 84 82 78 74 70 67 65 62 60 60 62 60 56 58 59 60 62 61 62 65 79 153 171 195 223 221 219 223 226 228 216 202 199 198 205 209 212 213
109 123 133 136 141 145 144 145 145 142 137 130 128 128 126 123 122 122 122 121 119 117 117 117 118 117 117 118 118 117 116 115 114 113 111 110 109 109 110 110 108 104 100 95 90 88 86 86 84 79 76 71 69 68 66 61 59 61 61 58 57 57 57 58 61 58 55 59 73 86 86 98 222 219 220 226 232 231 222 211 207 208 206 206 214
118 131 141 142 144 147 147 148 147 142 136 130 127 127 125 124 124 125 126 125 123 121 120 120 120 118 118 118 118 118 117 116 116 113 111 110 109 109 109 107 105 102 99 95 90 87 85 83 81 79 77 74 71 69 67 64 59 57 59 59 56 56 54 52 55 55 53 57 61 58 59 59 43 30 219 223 226 229 227 220 217 217 213 203 207
130 141 148 147 146 148 148 150 147 141 137 130 128 127 126 126 127 129 129 128 126 125 124 123 122 120 119 118 118 118 117 117 116 114 111 111 109 106 104 103 102 100 97 93 89 86 84 82 79 76 73 69 65 63 64 65 63 57 57 58 56 56 56 52 49 50 52 55 60 56 52 54 47 43 42 232 226 226 219 217 221 222 222 213 207
142 148 153 150 148 150 149 149 145 141 137 132 130 129 129 130 130 132 132 132 131 130 129 127 125 122 121 120 119 118 117 117 116 114 112 111 108 105 103 102 100 97 93 89 86 83 81 78 73 66 62 59 53 51 52 58 62 58 57 59 59 57 58 58 51 48 50 50 56 56 52 50 46 47 42 31 222 223 215 216 221 221 226 226 217
150 154 157 155 152 152 150 147 144 142 139 135 132 132 133 134 134 135 136 136 135 134 133 132 129 125 123 121 120 119 118 117 116 114 112 109 106 104 102 101 98 95 91 87 82 76 71 67 61 54 51 46 42 42 40 42 50 52 52 55 56 55 56 59 56 52 50 51 55 58 55 48 45 48 40 39 77 194 209 219 225 224 228 231 230
158 160 158 158 158 156 152 149 145 143 141 138 135 135 137 137 137 138 139 139 139 139 137 136 133 129 125 122 120 119 118 116 115 112 109 106 102 100 98 97 95 93 88 82 75 68 63 60 54 46 41 37 33 34 32 29 29 34 38 42 47 48 50 54 55 53 53 54 57 63 63 55 48 42 36 57 85 75 140 211 222 225 229 232 237
165 165 160 161 165 160 155 152 149 148 146 143 140 140 141 141 142 143 143 143 143 142 140 138 135 132 128 124 121 120 119 116 113 110 106 104 101 98 96 94 91 87 80 74 67 61 59 58 54 44 37 34 28 28 29 23 14 15 19 24 32 37 42 47 49 49 53 56 58 64 69 67 54 36 37 61 80 69 88 182 200 214 230 232 236
169 169 165 164 169 165 159 156 154 153 151 148 145 145 145 146 147 148 148 147 146 145 143 141 138 135 132 127 125 123 121 118 114 110 106 103 101 98 96 93 89 83 78 71 65 58 54 56 56 47 38 34 30 28 26 20 10 4 3 6 18 26 30 36 41 43 49 56 57 61 70 71 56 47 48 49 54 59 72 128 156 167 222 237 240
172 173 170 168 170 169 164 160 159 156 154 153 150 149 149 149 151 151 151 150 150 149 146 144 142 141 138 132 130 127 123 119 116 112 107 104 101 98 96 91 86 80 74 69 61 55 48 49 54 49 39 32 31 29 23 17 8 358 354 356 3 14 21 25 27 34 44 53 58 58 66 69 53 53 55 51 51 49 48 62 92 99 103 231 245
174 174 172 172 170 170 168 165 161 159 158 157 155 153 152 152 154 154 154 154 154 154 151 148 148 147 144 139 135 131 127 123 119 115 110 106 101 97 93 87 81 71 62 53 45 42 37 34 41 47 40 27 20 21 18 11 2 352 350 355 359 1 10 18 18 24 34 45 56 57 61 66 56 52 55 55 56 52 50 47 46 63 90 162 204
176 173 172 175 172 169 170 168 165 163 161 160 159 156 155 155 156 156 156 158 158 159 156 153 153 152 149 145 142 138 135 130 124 120 115 111 106 98 91 82 73 65 51 37 25 22 19 10 7 17 27 22 9 2 357 352 353 351 347 354 3 356 359 12 13 15 22 31 46 51 54 64 62 56 56 57 58 57 57 55 48 49 70 118 126
177 173 171 174 173 170 171 171 168 166 164 163 163 160 158 158 158 159 160 161 162 162 161 159 157 156 154 150 147 145 141 135 129 124 121 117 110 99 88 78 67 58 46 32 24 17 10 358 347 348 352 355 353 343 337 333 338 344 339 346 3 355 354 5 9 9 10 15 29 34 41 57 60 54 55 58 60 60 61 62 60 50 42 49 52
177 171 170 171 172 172 172 172 170 169 168 167 166 163 161 161 162 162 163 163 164 165 163 163 162 160 158 155 152 150 146 139 131 126 123 118 109 96 84 73 61 50 42 31 25 22 17 9 354 344 338 336 334 327 323 321 325 331 326 336 354 353 353 359 5 4 359 2 13 20 29 43 48 45 43 43 51 57 61 63 60 51 41 35 36
178 172 170 170 172 174 174 173 173 172 171 170 169 167 165 165 165 166 166 167 167 167 166 165 164 163 161 158 156 153 148 142 135 130 126 115 102 90 79 67 55 45 40 31 28 27 26 23 9 353 338 329 323 314 311 312 317 321 320 329 338 341 349 351 357 354 345 352 2 8 18 25 31 39 38 33 36 42 51 56 51 48 44 39 45
180 174 170 171 173 174 175 175 176 175 173 173 172 171 170 169 169 170 170 171 172 172 170 168 165 164 162 159 158 155 151 146 141 136 127 110 91 80 70 59 50 42 41 36 31 29 25 19 12 358 340 331 320 310 304 306 314 318 321 330 330 331 334 329 335 335 332 346 354 358 7 14 18 26 32 30 29 33 45 52 43 34 35 33 38
181 174 170 172 174 175 177 177 178 177 176 176 176 175 174 173 174 174 175 175 176 175 173 170 166 164 162 160 159 158 154 151 146 137 123 104 89 75 63 52 44 41 43 40 29 25 26 26 23 15 0 346 334 322 311 309 315 319 322 327 326 325 318 308 307 310 318 335 344 349 358 8 11 13 19 20 21 25 38 47 38 22 24 25 22
178 173 171 172 175 176 177 179 179 179 177 177 179 179 178 178 178 178 179 179 179 178 176 172 168 165 163 162 162 160 158 154 147 135 120 106 97 84 63 51 45 42 44 43 37 33 31 31 28 21 12 3 353 342 331 323 323 326 327 325 324 326 314 302 298 298 304 317 329 338 347 359 6 7 9 10 11 13 24 36 32 21 18 20 20
176 173 173 173 173 174 176 179 179 179 179 180 182 182 182 182 183 184 184 184 184 181 178 175 172 169 167 167 166 166 163 157 145 128 115 108 103 88 67 54 49 48 51 50 43 37 29 24 21 15 10 5 356 345 336 333 333 337 337 331 328 331 325 314 308 300 297 302 310 319 333 345 353 358 1 1 1 1 8 18 21 19 16 13 14
176 174 175 173 171 172 174 177 178 180 181 183 185 185 185 186 187 189 189 189 187 184 181 179 176 174 173 173 173 172 169 161 142 120 109 107 98 76 63 53 48 52 56 53 47 39 30 25 24 24 23 18 10 357 342 336 338 346 351 349 343 342 340 330 321 309 303 304 303 308 318 323 329 341 346 346 348 348 351 354 356 3 6 2 3
177 177 175 173 172 171 173 175 177 180 182 184 186 188 189 189 190 192 193 191 189 187 185 182 181 179 178 178 179 178 175 165 137 112 100 95 82 65 57 49 46 53 54 52 50 43 39 42 46 46 44 39 34 27 20 13 8 7 5 5 2 359 357 349 340 327 319 317 311 311 312 305 309 319 324 327 331 334 335 336 340 346 346 344 345
178 178 176 175 172 170 172 174 176 179 182 185 188 190 191 192 193 194 193 192 190 190 188 186 185 183 182 183 183 183 177 162 129 96 83 73 63 60 56 48 51 57 54 54 55 51 54 62 61 57 52 48 44 41 39 40 40 36 27 21 18 13 9 3 355 345 340 338 329 323 318 311 308 307 308 310 312 316 318 321 325 328 327 326 325
181 179 178 178 174 171 170 171 175 179 183 187 191 193 195 194 194 194 193 191 191 191 189 188 187 185 185 187 187 185 176 157 121 81 63 54 52 57 54 51 61 62 59 60 60 62 70 72 66 61 55 49 46 44 44 45 46 45 40 34 27 20 14 10 5 359 355 352 347 338 328 325 318 308 305 301 299 300 301 304 308 310 311 312 313
184 182 181 180 176 173 170 169 175 181 185 190 194 195 196 195 194 194 193 192 191 191 191 192 190 188 188 190 191 187 177 158 116 69 48 36 43 53 53 56 70 70 65 67 67 71 81 79 70 63 56 49 45 44 44 44 43 42 40 35 30 27 22 17 15 13 10 8 8 1 349 345 336 325 320 313 306 302 297 297 298 299 301 303 305
186 185 184 181 179 176 173 173 177 181 186 191 195 196 194 194 193 194 193 191 191 192 194 195 193 192 193 194 195 192 185 174 139 66 37 27 33 42 46 54 76 75 69 72 72 72 83 83 72 60 52 47 44 42 42 40 37 34 32 28 25 25 22 18 16 15 16 18 21 21 14 10 1 346 343 338 331 325 318 311 304 301 300 300 302
189 189 187 185 184 182 180 180 181 181 185 188 189 189 190 192 193 194 194 194 196 197 197 197 196 196 198 199 200 199 197 193 192 108 37 27 25 26 18 28 91 80 69 72 69 59 65 72 67 55 47 42 39 39 38 33 28 25 23 21 18 17 16 14 11 9 10 11 14 18 17 17 17 9 1 357 351 345 342 335 323 313 307 305 305
193 191 190 189 187 186 185 184 183 182 183 181 178 179 183 188 191 195 197 198 199 199 199 199 199 201 202 203 206 205 204 203 211 234 35 33 21 15 347 273 216 104 65 61 48 31 38 50 54 51 45 40 36 34 30 24 20 16 14 13 12 10 9 7 6 4 4 4 4 5 7 8 10 11 9 7 5 359 352 345 335 327 319 314 312
197 194 192 191 188 187 186 185 184 182 179 175 171 175 180 184 190 195 199 202 203 203 204 203 203 205 205 208 212 212 211 210 218 239 333 31 22 9 331 265 243 228 46 24 356 3 16 28 37 40 37 35 32 28 22 16 11 7 4 1 359 357 356 356 357 356 356 358 358 356 356 356 356 359 1 3 4 2 358 350 341 335 328 324 320
197 195 193 193 189 187 186 184 182 180 176 172 171 176 180 187 191 194 198 203 206 207 208 209 208 208 210 213 216 214 214 217 221 232 255 10 17 7 341 290 259 252 283 323 321 337 356 6 17 23 22 23 24 20 13 6 1 359 357 356 354 353 353 353 352 350 348 349 350 349 349 349 348 349 351 354 357 357 356 352 346 340 335 332 330
194 194 195 193 190 187 185 183 181 179 176 175 175 179 184 191 193 193 196 200 204 209 212 213 213 213 214 217 217 213 214 217 220 229 241 281 352 2 351 324 281 264 266 289 298 312 334 346 355 0 356 359 9 7 360 356 355 357 0 1 360 360 1 1 359 355 350 345 342 339 340 342 344 345 344 346 348 347 347 346 344 340 337 336 335
193 193 193 191 189 188 185 183 182 180 180 181 182 185 189 193 195 196 197 197 200 207 212 216 218 219 219 220 220 216 218 220 222 229 238 256 305 347 351 341 313 281 270 278 284 292 310 324 329 329 322 322 339 346 347 349 353 359 5 5 3 3 4 5 5 3 359 353 346 339 334 334 337 339 337 337 337 336 337 339 339 339 339 339 337
193 192 191 190 189 189 189 188 187 186 187 189 190 192 194 197 199 199 199 198 199 204 210 216 220 223 224 225 225 224 225 228 228 233 238 247 270 318 339 343 332 300 277 274 278 282 292 303 304 294 290 293 308 329 339 346 352 359 3 3 4 4 4 6 9 10 9 6 2 355 344 336 334 334 333 333 333 332 334 337 339 341 343 344 341